Wind_Speed
71 71 75 80 81 82 83 85 88 88 91 91 89 84 88 95 84 71 76 83 83 81 81 89 95 96 90 82 86 86 84 84 84 77 64 54 58 62 64 68 70 65 57 53
85 81 81 80 84 86 86 87 88 89 92 94 91 77 69 85 77 86 89 91 84 77 77 77 81 83 87 85 88 91 89 90 86 79 68 56 58 63 64 68 66 66 60 58
95 91 90 91 86 85 88 88 90 92 91 88 88 72 78 87 88 92 91 90 86 82 77 77 78 81 83 88 90 92 92 93 87 78 68 58 60 56 59 60 64 65 68 64
103 102 101 102 102 104 100 98 92 95 96 93 98 82 85 91 90 88 89 86 83 83 81 78 80 86 89 92 95 92 87 85 85 79 68 59 57 52 63 67 70 69 67 64
113 111 111 110 108 109 107 105 102 99 100 98 100 92 74 81 91 92 88 86 86 85 84 84 85 86 88 90 91 89 82 83 87 79 70 62 59 56 71 72 70 65 65 65
115 116 115 110 110 111 106 104 103 100 100 97 94 93 81 84 86 85 83 83 82 79 80 79 81 78 77 78 77 78 77 77 78 76 69 64 64 65 73 72 68 63 65 62
96 98 95 97 95 93 97 96 94 94 92 90 92 91 83 78 79 78 70 71 72 70 69 66 65 64 64 65 66 64 63 65 70 70 67 66 68 71 73 71 66 62 61 58
76 77 77 79 83 84 83 83 85 85 86 84 82 81 77 75 70 69 65 64 58 55 53 52 51 49 49 51 53 54 54 57 60 64 64 66 64 70 69 69 63 61 58 57
65 67 70 75 77 77 77 79 79 76 76 76 75 75 66 67 62 58 54 48 44 43 41 39 35 36 39 40 43 44 46 47 50 54 58 60 67 67 65 67 64 60 57 52
61 63 66 69 67 68 69 69 69 69 72 69 66 62 60 55 49 45 43 42 40 35 29 29 30 33 32 35 37 40 41 43 48 49 50 53 62 58 57 60 62 59 51 49
55 56 59 59 59 58 60 64 65 63 62 56 56 54 49 45 45 42 39 34 29 24 25 28 27 26 28 29 30 33 35 39 43 43 43 46 54 54 51 57 64 54 49 50
49 51 50 49 50 54 57 56 54 51 51 49 50 48 41 42 38 34 30 25 20 21 26 27 26 20 19 24 24 27 29 33 33 38 47 46 49 50 52 56 58 53 50 47
41 43 46 50 53 54 52 49 45 43 46 47 46 41 38 32 28 22 24 23 18 24 26 26 26 23 18 22 23 25 23 26 29 36 44 41 40 45 46 49 53 50 47 47
39 46 50 51 52 50 45 41 40 40 42 41 38 32 29 26 25 26 27 17 23 26 27 30 27 33 37 26 18 12 25 29 30 36 42 47 40 40 44 50 48 41 43 45
44 47 52 50 47 43 40 38 37 35 31 30 26 25 24 24 25 31 29 27 31 29 29 30 31 30 31 28 33 31 28 36 37 38 42 45 44 46 49 49 44 46 51 49
44 42 42 38 37 37 34 32 30 25 24 23 21 22 24 23 26 36 33 35 33 33 30 33 30 29 31 29 30 29 30 35 40 30 46 48 46 48 45 45 48 52 50 50
34 31 32 33 31 28 28 25 23 19 19 20 19 21 22 24 36 39 36 38 38 38 38 36 32 30 32 32 30 31 32 34 42 49 48 50 46 42 43 42 48 48 49 49
28 28 28 25 21 23 24 21 18 17 20 21 22 24 25 31 41 41 40 42 43 39 37 34 35 30 29 33 31 30 32 36 43 46 50 52 43 40 40 38 47 51 52 54
23 24 22 20 19 18 19 17 18 18 20 22 24 27 31 35 42 42 46 43 45 41 39 33 30 29 27 32 36 35 35 41 40 46 48 47 49 48 45 42 50 51 58 60
19 19 19 18 18 17 20 19 22 21 25 26 27 30 34 50 44 42 46 49 45 47 43 41 35 33 32 29 39 39 37 42 44 45 47 48 49 56 60 60 54 64 66 63
18 18 17 17 18 20 22 21 26 26 31 29 31 32 36 44 49 45 48 49 47 49 47 46 37 36 35 34 39 44 44 46 45 47 50 50 53 56 57 63 71 66 68 66
15 16 17 17 18 20 25 25 27 32 33 31 32 34 38 41 43 49 54 54 54 50 50 47 43 48 40 40 41 43 47 50 52 53 54 57 57 58 59 62 69 73 73 68
14 14 20 20 19 22 21 28 32 36 36 36 36 36 44 41 40 42 52 54 57 58 53 49 47 44 50 46 46 47 49 54 58 58 65 60 64 65 64 66 69 71 74 75
16 17 21 22 20 22 24 21 29 35 38 42 39 38 43 48 47 46 47 47 44 60 61 58 54 50 49 48 53 55 54 54 58 58 59 71 75 73 72 74 74 75 80 82
18 19 23 24 23 23 22 25 29 34 34 38 40 43 46 47 46 43 44 43 42 40 49 54 56 62 65 59 57 59 61 59 61 63 66 67 71 76 78 78 82 83 84 86
19 19 24 25 25 26 25 24 25 28 30 38 41 38 39 38 37 37 37 38 42 42 45 49 54 55 57 63 64 63 60 60 66 67 69 75 77 78 78 83 84 85 88 90
Wind_Direction
266 266 264 265 266 267 268 269 270 270 270 269 271 270 272 272 269 278 277 276 273 268 269 266 266 268 265 260 266 265 262 265 266 265 260 252 247 250 250 244 247 248 251 256
279 276 269 267 266 266 268 269 270 272 272 270 272 270 277 275 274 277 277 277 273 270 267 268 266 266 258 254 257 262 263 264 265 264 258 241 243 248 244 244 245 248 248 253
284 282 283 280 276 275 278 278 275 274 272 270 273 279 281 281 278 276 277 280 281 276 269 269 265 261 259 254 255 259 261 265 266 265 259 234 231 258 244 244 242 245 244 246
280 281 282 284 282 284 286 284 282 284 282 282 285 279 278 276 279 283 282 281 280 276 272 267 262 261 259 257 256 258 262 263 262 259 254 239 228 242 242 237 235 239 241 244
278 278 279 279 279 281 281 281 281 281 281 281 281 280 282 280 282 283 280 279 277 273 272 270 266 263 260 259 259 258 258 258 259 257 251 240 233 239 235 233 232 235 238 240
271 273 274 275 276 276 276 278 279 279 279 280 281 282 282 281 281 278 277 278 276 271 268 267 266 267 266 264 262 260 256 254 254 254 248 242 235 237 230 230 228 229 235 237
272 273 273 274 272 273 275 275 275 276 277 280 280 281 283 281 277 275 274 272 270 269 270 270 269 266 264 261 258 256 253 250 247 247 243 235 229 229 225 227 224 225 231 232
271 272 272 271 273 274 274 274 275 276 278 279 280 279 281 282 279 279 277 272 271 270 269 267 266 264 260 258 255 252 248 245 244 242 236 227 221 221 221 223 221 221 227 230
273 274 274 273 273 274 274 274 275 276 277 277 277 280 281 278 277 277 275 278 276 271 268 265 261 263 259 254 252 249 247 244 240 235 228 220 216 217 217 218 218 218 221 230
276 274 272 272 273 273 274 276 276 275 277 280 282 280 279 278 279 279 280 279 276 272 269 261 256 252 248 246 244 241 234 229 226 221 213 209 213 214 215 215 215 216 217 221
272 271 271 272 272 273 272 271 272 275 278 280 280 279 278 283 283 281 276 273 268 262 252 248 243 239 238 237 234 229 224 220 216 208 200 203 208 207 211 213 213 213 218 219
271 274 277 276 273 272 273 278 280 281 282 278 275 275 280 275 275 271 266 260 253 255 243 230 214 211 225 233 222 220 217 216 210 205 195 192 202 204 208 210 210 213 218 221
276 276 278 275 275 278 280 281 279 277 272 272 273 276 273 270 262 252 239 237 247 238 236 211 214 154 168 214 195 203 200 203 201 198 192 189 194 201 203 203 209 214 219 225
278 278 276 278 280 281 282 278 273 268 267 268 268 269 262 250 237 225 222 227 226 223 210 197 200 188 192 193 185 224 194 183 184 191 188 190 189 196 197 201 207 216 218 221
277 280 282 281 279 277 277 275 272 269 268 261 261 254 244 230 220 214 198 203 205 195 195 199 195 193 187 179 172 192 198 177 174 182 189 190 186 189 194 199 202 211 215 220
283 279 275 274 275 274 272 268 266 263 256 252 241 230 221 214 210 209 199 197 198 196 193 197 201 197 186 184 189 192 193 187 169 193 179 182 184 187 195 202 212 213 215 227
279 274 274 273 271 267 260 258 257 252 244 233 220 216 214 207 205 214 205 206 199 196 195 200 205 195 195 194 196 193 193 192 186 179 180 181 185 197 201 215 218 222 224 229
281 276 272 270 264 251 252 247 245 230 225 215 208 208 207 208 207 216 216 212 208 201 201 212 206 193 201 199 195 197 194 192 187 186 187 189 194 203 205 214 221 224 228 231
278 276 271 261 244 240 239 232 226 217 219 215 210 205 208 212 210 220 219 225 219 211 214 215 213 200 202 207 201 201 201 193 191 191 197 199 201 203 209 217 221 224 229 230
278 275 261 247 230 220 223 221 217 216 219 218 217 213 210 209 221 225 227 227 223 220 219 218 208 206 203 203 207 201 202 201 197 199 204 209 214 217 209 212 223 230 229 233
273 264 243 230 220 217 221 220 217 219 219 222 221 221 221 216 223 230 230 226 229 226 224 229 214 212 210 208 211 209 206 206 205 208 211 214 218 224 228 230 228 229 235 237
264 243 220 214 204 212 220 222 222 223 228 229 226 226 225 229 226 233 237 234 231 229 231 233 233 220 218 215 213 213 219 215 215 213 215 216 219 224 225 229 233 239 244 252
251 219 200 198 192 206 220 219 224 230 233 236 235 233 230 237 239 236 233 242 240 236 235 237 240 240 228 220 219 217 219 221 222 223 220 225 225 226 229 232 239 243 246 247
247 206 196 197 196 200 214 222 231 232 237 240 244 242 238 240 244 243 242 244 247 240 244 244 243 246 244 233 224 220 222 225 225 225 228 230 229 233 235 237 238 241 244 250
243 209 198 196 195 193 205 226 234 237 239 242 246 247 247 246 249 251 252 253 254 255 252 252 251 248 246 246 243 234 236 234 228 229 228 229 232 235 238 240 242 243 244 247
237 221 200 196 199 200 200 204 226 240 246 250 253 255 257 259 261 262 262 260 259 263 260 255 252 251 246 244 248 247 241 239 236 236 239 237 236 234 237 242 244 245 247 248
Height
10570 10571 10573 10569 10570 10570 10571 10570 10566 10563 10559 10564 10566 10583 10574 10559 10560 10557 10544 10544 10550 10554 10549 10547 10544 10543 10547 10548 10548 10550 10557 10559 10561 10567 10572 10578 10583 10583 10590 10600 10603 10614 10622 10627
10544 10549 10548 10549 10548 10548 10548 10548 10543 10539 10534 10535 10540 10559 10554 10531 10532 10526 10523 10524 10524 10528 10526 10525 10520 10518 10518 10519 10524 10526 10527 10529 10536 10546 10555 10559 10563 10565 10573 10581 10595 10604 10610 10615
10519 10522 10524 10521 10521 10522 10523 10521 10516 10514 10510 10510 10512 10530 10525 10518 10506 10502 10502 10499 10497 10499 10500 10499 10495 10494 10493 10493 10497 10502 10505 10504 10511 10520 10530 10540 10544 10552 10562 10574 10582 10588 10592 10600
10493 10497 10498 10498 10496 10492 10495 10491 10492 10488 10482 10485 10480 10490 10507 10491 10482 10480 10471 10468 10467 10466 10470 10473 10470 10467 10466 10467 10470 10477 10480 10482 10485 10494 10508 10522 10527 10535 10546 10553 10557 10567 10581 10590
10468 10471 10470 10470 10468 10467 10468 10464 10465 10463 10456 10458 10453 10450 10492 10469 10457 10450 10443 10441 10441 10442 10442 10443 10441 10440 10436 10439 10443 10448 10455 10460 10459 10471 10486 10499 10512 10518 10524 10532 10541 10558 10569 10578
10442 10441 10442 10445 10440 10437 10437 10439 10439 10436 10429 10433 10428 10423 10450 10437 10431 10426 10423 10421 10417 10414 10412 10413 10412 10414 10414 10416 10420 10422 10429 10434 10440 10447 10464 10481 10493 10498 10505 10516 10529 10545 10555 10566
10411 10412 10415 10413 10409 10410 10411 10412 10409 10410 10406 10413 10405 10403 10407 10412 10404 10399 10402 10398 10394 10393 10390 10391 10391 10392 10392 10392 10396 10399 10405 10412 10419 10428 10442 10457 10469 10478 10489 10501 10518 10533 10545 10557
10387 10387 10390 10389 10385 10387 10388 10387 10384 10387 10386 10387 10385 10383 10386 10382 10378 10373 10379 10378 10377 10374 10372 10371 10372 10373 10373 10375 10377 10381 10387 10394 10402 10410 10423 10437 10452 10463 10474 10490 10506 10521 10534 10545
10367 10368 10365 10360 10363 10366 10366 10361 10364 10366 10365 10365 10365 10359 10365 10361 10361 10360 10358 10358 10356 10355 10355 10356 10357 10358 10360 10363 10365 10368 10372 10379 10386 10396 10411 10425 10436 10451 10462 10478 10494 10510 10525 10536
10347 10348 10343 10341 10343 10344 10343 10344 10344 10346 10342 10343 10343 10344 10342 10340 10343 10344 10342 10341 10341 10341 10343 10344 10347 10350 10352 10355 10358 10361 10365 10372 10380 10390 10404 10416 10430 10443 10457 10472 10487 10501 10516 10525
10329 10327 10326 10327 10328 10328 10327 10325 10327 10330 10326 10328 10324 10322 10324 10327 10326 10327 10327 10329 10330 10334 10335 10339 10343 10344 10346 10349 10353 10356 10361 10369 10377 10386 10397 10410 10423 10436 10452 10467 10480 10494 10506 10515
10313 10313 10312 10311 10310 10309 10309 10310 10310 10311 10308 10309 10305 10307 10315 10314 10316 10316 10317 10319 10324 10329 10332 10336 10336 10340 10345 10347 10353 10354 10359 10367 10375 10384 10393 10405 10420 10435 10447 10461 10475 10485 10496 10504
10303 10300 10298 10297 10295 10293 10294 10295 10295 10296 10293 10293 10294 10300 10301 10304 10306 10309 10310 10315 10322 10326 10329 10331 10333 10340 10344 10346 10350 10354 10360 10365 10373 10384 10392 10404 10416 10428 10443 10458 10468 10478 10488 10497
10291 10288 10285 10283 10281 10280 10280 10281 10282 10283 10282 10283 10284 10290 10292 10295 10298 10301 10306 10315 10320 10324 10326 10329 10332 10335 10340 10346 10352 10360 10360 10365 10373 10381 10390 10401 10413 10427 10441 10453 10466 10474 10481 10486
10278 10277 10272 10269 10268 10267 10268 10269 10269 10270 10272 10273 10277 10281 10286 10289 10293 10298 10307 10314 10318 10322 10324 10327 10331 10336 10341 10346 10350 10353 10360 10366 10373 10382 10390 10400 10410 10422 10432 10445 10456 10463 10468 10473
10266 10265 10259 10258 10258 10256 10257 10257 10258 10261 10263 10266 10271 10276 10280 10287 10292 10297 10306 10310 10314 10318 10322 10325 10328 10334 10340 10346 10350 10354 10361 10368 10373 10384 10389 10401 10412 10420 10429 10437 10443 10449 10454 10460
10254 10252 10249 10247 10249 10248 10246 10249 10250 10255 10256 10261 10267 10273 10278 10285 10291 10295 10304 10307 10309 10313 10317 10320 10325 10332 10338 10343 10349 10355 10361 10367 10374 10381 10390 10399 10406 10415 10425 10432 10438 10443 10448 10451
10242 10241 10239 10238 10239 10239 10239 10242 10245 10250 10252 10257 10263 10270 10276 10283 10289 10293 10300 10304 10307 10312 10315 10318 10324 10330 10336 10341 10347 10352 10359 10365 10372 10381 10386 10389 10399 10409 10417 10423 10429 10434 10436 10437
10234 10231 10229 10230 10231 10233 10233 10237 10241 10246 10249 10254 10260 10267 10274 10281 10287 10291 10296 10301 10307 10309 10312 10317 10324 10330 10334 10340 10345 10350 10356 10362 10369 10376 10381 10389 10392 10401 10408 10412 10411 10417 10418 10424
10225 10223 10223 10224 10225 10227 10230 10234 10238 10243 10247 10252 10258 10265 10272 10279 10284 10289 10293 10297 10302 10306 10310 10314 10321 10327 10331 10337 10342 10348 10354 10359 10365 10371 10377 10382 10387 10390 10394 10395 10397 10397 10404 10408
10217 10216 10217 10217 10219 10222 10226 10230 10235 10239 10244 10249 10256 10262 10269 10276 10282 10287 10291 10294 10297 10301 10306 10310 10318 10322 10327 10332 10337 10343 10348 10354 10359 10364 10369 10374 10378 10382 10388 10388 10383 10385 10385 10394
10211 10211 10213 10213 10216 10220 10223 10227 10232 10236 10240 10246 10252 10258 10264 10270 10279 10283 10285 10289 10292 10296 10300 10305 10310 10316 10320 10326 10330 10335 10340 10346 10352 10357 10361 10364 10367 10371 10374 10377 10376 10376 10377 10381
10204 10206 10207 10209 10212 10216 10220 10224 10229 10233 10236 10242 10248 10253 10259 10264 10270 10275 10281 10284 10286 10290 10294 10297 10300 10306 10313 10317 10322 10326 10330 10334 10339 10344 10349 10352 10355 10357 10359 10361 10362 10361 10362 10363
10197 10200 10202 10204 10207 10211 10216 10221 10224 10228 10233 10237 10241 10247 10252 10256 10260 10264 10269 10274 10279 10284 10286 10290 10293 10296 10301 10307 10310 10313 10318 10322 10325 10329 10332 10337 10339 10341 10342 10344 10345 10346 10346 10346
10190 10194 10197 10200 10202 10207 10211 10216 10220 10223 10228 10232 10235 10239 10244 10247 10250 10255 10261 10265 10270 10274 10278 10281 10282 10285 10288 10290 10296 10301 10304 10307 10310 10313 10316 10318 10321 10323 10324 10326 10327 10327 10328 10328
10183 10187 10191 10195 10198 10202 10206 10210 10213 10218 10224 10227 10229 10232 10235 10238 10241 10245 10249 10254 10260 10262 10263 10264 10265 10267 10271 10274 10277 10281 10284 10287 10291 10295 10298 10300 10302 10303 10305 10306 10306 10307 10306 10306